Location: Unspecified
(0.0000°N, 0.0000°E)
Time: 04:31:20
(UTC+02:00)

Cosmos 1536 - Visible Passes

Search period start: 27 May 2017 00:00
Search period end: 06 June 2017 00:00
Orbit: 542 x 561 km, 82.5° (Epoch: 26 May)

Date Brightness Start Highest point End Pass type
(mag) Time Alt. Az. Time Alt. Az. Time Alt. Az.
27 May 5.1 21:26:17 10° NW 21:29:33 24° W 21:32:50 10° SSW visible
28 May 5.3 21:22:34 10° NW 21:25:37 21° W 21:28:44 10° SW visible
29 May 5.5 21:18:52 10° NW 21:21:43 19° W 21:24:35 10° SW visible
30 May 5.7 21:15:13 10° NW 21:17:48 17° W 21:20:23 10° SW visible
31 May 5.8 21:11:38 10° WNW 21:13:52 15° W 21:16:07 10° SW visible
01 Jun 5.9 21:08:09 10° WNW 21:09:57 13° W 21:11:45 10° WSW visible
02 Jun 5.7 07:28:55 10° SE 07:31:57 20° E 07:34:57 10° NE visible
02 Jun 6.1 21:04:52 10° WNW 21:06:02 11° W 21:07:11 10° WSW visible
03 Jun 5.5 07:24:47 10° SSE 07:28:02 23° E 07:31:14 10° NE visible
04 Jun 5.2 07:20:41 10° SSE 07:24:06 26° E 07:27:29 10° NE visible
05 Jun 4.9 07:16:37 10° SSE 07:20:11 30° E 07:23:42 10° NNE visible
